Time,TemperatureF,DewpointF,PressureIn,WindDirection,WindDirectionDegrees,WindSpeedMPH,WindSpeedGustMPH,Humidity,HourlyPrecipIn,Conditions,Clouds,dailyrainin,SoftwareType,DateUTC
2013-10-16 00:02:00,49.3,45.9,30.14,SSW,203,0.0,0.0,88,0.00,,,0.00,WUHU216HW,2013-10-16 07:02:00,
2013-10-16 00:07:00,49.3,45.9,30.14,SSW,203,0.0,0.0,88,0.00,,,0.00,WUHU216HW,2013-10-16 07:07:00,
2013-10-16 00:12:00,49.1,45.7,30.14,SSW,203,0.0,0.0,88,0.00,,,0.00,WUHU216HW,2013-10-16 07:12:00,
2013-10-16 00:17:00,49.1,45.7,30.14,SSW,203,0.0,0.0,88,0.00,,,0.00,WUHU216HW,2013-10-16 07:17:00,
2013-10-16 00:22:00,49.3,45.9,30.14,SSW,203,0.0,0.2,88,0.00,,,0.00,WUHU216HW,2013-10-16 07:22:00,
2013-10-16 00:27:00,49.3,45.9,30.14,SSW,203,0.0,0.2,88,0.00,,,0.00,WUHU216HW,2013-10-16 07:27:00,
2013-10-16 00:32:00,49.3,45.9,30.14,SSW,203,0.0,0.0,88,0.00,,,0.00,WUHU216HW,2013-10-16 07:32:00,
2013-10-16 00:37:00,49.3,45.9,30.14,SSW,203,0.0,0.0,88,0.00,,,0.00,WUHU216HW,2013-10-16 07:37:00,
2013-10-16 00:42:00,49.3,45.9,30.14,SE,135,0.0,0.9,88,0.00,,,0.00,WUHU216HW,2013-10-16 07:42:00,
2013-10-16 00:47:00,49.3,45.9,30.14,East,90,0.0,0.9,88,0.00,,,0.00,WUHU216HW,2013-10-16 07:47:00,
2013-10-16 00:52:00,49.1,45.7,30.14,East,90,0.0,0.0,88,0.00,,,0.00,WUHU216HW,2013-10-16 07:52:00,
2013-10-16 00:58:00,49.0,45.5,30.14,East,90,0.0,0.0,88,0.00,,,0.00,WUHU216HW,2013-10-16 07:58:00,
2013-10-16 01:03:00,49.0,45.5,30.14,East,90,0.0,0.0,88,0.00,,,0.00,WUHU216HW,2013-10-16 08:03:00,
2013-10-16 01:08:00,48.8,45.4,30.13,ENE,68,0.0,0.7,88,0.00,,,0.00,WUHU216HW,2013-10-16 08:08:00,
2013-10-16 01:13:00,49.0,45.5,30.14,SSE,158,0.0,0.7,88,0.00,,,0.00,WUHU216HW,2013-10-16 08:13:00,
2013-10-16 01:18:00,49.0,45.5,30.13,SSE,158,0.0,0.0,88,0.00,,,0.00,WUHU216HW,2013-10-16 08:18:00,
2013-10-16 01:23:00,49.0,45.5,30.13,SSE,158,0.0,0.0,88,0.00,,,0.00,WUHU216HW,2013-10-16 08:23:00,
2013-10-16 01:28:00,49.0,45.5,30.13,SSE,158,0.0,0.0,88,0.00,,,0.00,WUHU216HW,2013-10-16 08:28:00,
2013-10-16 01:33:00,48.8,45.4,30.13,SSW,203,0.0,0.7,88,0.00,,,0.00,WUHU216HW,2013-10-16 08:33:00,
2013-10-16 01:37:00,48.6,45.2,30.13,SW,225,0.7,1.3,88,0.00,,,0.00,WUHU216HW,2013-10-16 08:37:00,
2013-10-16 01:42:00,48.6,45.5,30.13,SW,225,0.0,1.3,89,0.00,,,0.00,WUHU216HW,2013-10-16 08:42:00,
2013-10-16 01:47:00,48.6,45.5,30.13,SW,225,1.8,1.8,89,0.00,,,0.00,WUHU216HW,2013-10-16 08:47:00,
2013-10-16 01:52:00,48.6,45.5,30.13,West,270,1.1,2.0,89,0.00,,,0.00,WUHU216HW,2013-10-16 08:52:00,
2013-10-16 01:57:00,48.6,45.5,30.14,WNW,293,0.0,2.0,89,0.00,,,0.00,WUHU216HW,2013-10-16 08:57:00,
2013-10-16 02:02:00,48.6,45.5,30.13,West,270,0.2,1.1,89,0.00,,,0.00,WUHU216HW,2013-10-16 09:02:00,
2013-10-16 02:07:00,48.6,45.5,30.14,SW,225,0.7,1.1,89,0.00,,,0.00,WUHU216HW,2013-10-16 09:07:00,
2013-10-16 02:12:00,48.6,45.5,30.14,WSW,248,0.7,1.8,89,0.00,,,0.00,WUHU216HW,2013-10-16 09:12:00,
2013-10-16 02:17:00,48.6,45.5,30.13,NE,45,0.2,1.8,89,0.00,,,0.00,WUHU216HW,2013-10-16 09:17:00,
2013-10-16 02:22:00,48.4,45.4,30.14,ESE,113,0.4,1.1,89,0.00,,,0.00,WUHU216HW,2013-10-16 09:22:00,
2013-10-16 02:27:00,48.2,45.2,30.13,SSW,203,1.1,1.1,89,0.00,,,0.00,WUHU216HW,2013-10-16 09:27:00,
2013-10-16 02:32:00,48.4,45.7,30.13,SSW,203,1.6,1.8,90,0.00,,,0.00,WUHU216HW,2013-10-16 09:32:00,
2013-10-16 02:37:00,48.6,45.9,30.13,East,90,0.7,2.2,90,0.00,,,0.00,WUHU216HW,2013-10-16 09:37:00,
2013-10-16 02:42:00,48.6,45.9,30.13,NNW,338,0.0,2.2,90,0.00,,,0.00,WUHU216HW,2013-10-16 09:42:00,
2013-10-16 02:47:00,48.6,45.9,30.13,South,180,0.0,2.2,90,0.00,,,0.00,WUHU216HW,2013-10-16 09:47:00,
2013-10-16 02:52:00,48.8,46.0,30.13,North,0,0.4,2.0,90,0.00,,,0.00,WUHU216HW,2013-10-16 09:52:00,
2013-10-16 02:57:00,48.8,46.3,30.13,NW,315,4.3,4.3,91,0.00,,,0.00,WUHU216HW,2013-10-16 09:57:00,
2013-10-16 03:03:00,49.0,46.4,30.13,NNW,338,1.1,4.3,91,0.00,,,0.00,WUHU216HW,2013-10-16 10:03:00,
2013-10-16 03:08:00,49.3,46.8,30.13,NNW,338,1.1,2.5,91,0.00,,,0.00,WUHU216HW,2013-10-16 10:08:00,
2013-10-16 03:13:00,49.3,46.8,30.13,NNW,338,2.7,2.7,91,0.00,,,0.00,WUHU216HW,2013-10-16 10:13:00,
2013-10-16 03:18:00,49.5,47.0,30.13,SSE,158,0.9,2.7,91,0.00,,,0.00,WUHU216HW,2013-10-16 10:18:00,
2013-10-16 03:23:00,49.7,47.2,30.13,SSW,203,0.0,2.7,91,0.00,,,0.00,WUHU216HW,2013-10-16 10:23:00,
2013-10-16 03:28:00,49.7,47.2,30.13,SSE,158,1.1,3.6,91,0.00,,,0.00,WUHU216HW,2013-10-16 10:28:00,
2013-10-16 03:33:00,49.7,47.2,30.12,SE,135,0.2,3.6,91,0.00,,,0.00,WUHU216HW,2013-10-16 10:33:00,
2013-10-16 03:38:00,49.9,47.3,30.12,South,180,0.0,2.2,91,0.00,,,0.00,WUHU216HW,2013-10-16 10:38:00,
2013-10-16 03:43:00,49.9,47.3,30.12,North,0,0.4,2.2,91,0.00,,,0.00,WUHU216HW,2013-10-16 10:43:00,
2013-10-16 03:48:00,49.9,47.3,30.12,South,180,0.0,2.7,91,0.00,,,0.00,WUHU216HW,2013-10-16 10:48:00,
2013-10-16 03:53:00,50.0,47.2,30.12,SW,225,1.1,2.7,90,0.00,,,0.00,WUHU216HW,2013-10-16 10:53:00,
2013-10-16 03:58:00,50.0,47.2,30.12,WSW,248,0.0,1.8,90,0.00,,,0.00,WUHU216HW,2013-10-16 10:58:00,
2013-10-16 04:03:00,50.0,47.2,30.12,WSW,248,0.0,1.1,90,0.00,,,0.00,WUHU216HW,2013-10-16 11:03:00,
2013-10-16 04:08:00,50.0,47.2,30.12,SSW,203,0.0,1.6,90,0.00,,,0.00,WUHU216HW,2013-10-16 11:08:00,
2013-10-16 04:13:00,50.0,47.2,30.12,East,90,0.0,1.6,90,0.00,,,0.00,WUHU216HW,2013-10-16 11:13:00,
2013-10-16 04:18:00,50.2,47.3,30.12,East,90,0.0,1.1,90,0.00,,,0.00,WUHU216HW,2013-10-16 11:18:00,
2013-10-16 04:23:00,50.2,47.3,30.12,East,90,0.2,0.4,90,0.00,,,0.00,WUHU216HW,2013-10-16 11:23:00,
2013-10-16 04:28:00,50.2,47.3,30.12,ENE,68,0.0,1.1,90,0.00,,,0.00,WUHU216HW,2013-10-16 11:28:00,
2013-10-16 04:33:00,50.2,47.3,30.12,NW,315,0.0,1.1,90,0.00,,,0.00,WUHU216HW,2013-10-16 11:33:00,
2013-10-16 04:38:00,50.2,47.3,30.11,NNE,23,0.0,1.1,90,0.00,,,0.00,WUHU216HW,2013-10-16 11:38:00,
2013-10-16 04:43:00,50.2,47.3,30.12,ENE,68,0.0,1.3,90,0.00,,,0.00,WUHU216HW,2013-10-16 11:43:00,
2013-10-16 04:48:00,50.2,47.3,30.12,ENE,68,0.0,1.3,90,0.00,,,0.00,WUHU216HW,2013-10-16 11:48:00,
2013-10-16 04:53:00,50.2,47.3,30.12,ENE,68,0.0,0.4,90,0.00,,,0.00,WUHU216HW,2013-10-16 11:53:00,
2013-10-16 04:58:00,50.2,47.3,30.12,SSW,203,0.0,1.8,90,0.00,,,0.00,WUHU216HW,2013-10-16 11:58:00,
2013-10-16 05:03:00,50.4,47.5,30.12,North,0,0.0,1.8,90,0.00,,,0.00,WUHU216HW,2013-10-16 12:03:00,
2013-10-16 05:08:00,50.4,47.5,30.11,NW,315,1.3,1.3,90,0.00,,,0.00,WUHU216HW,2013-10-16 12:08:00,
2013-10-16 05:13:00,50.4,47.5,30.12,North,0,0.4,2.2,90,0.00,,,0.00,WUHU216HW,2013-10-16 12:13:00,
2013-10-16 05:18:00,50.2,47.3,30.12,NW,315,0.2,2.2,90,0.00,,,0.00,WUHU216HW,2013-10-16 12:18:00,
2013-10-16 05:23:00,50.2,47.3,30.12,East,90,0.2,2.2,90,0.00,,,0.00,WUHU216HW,2013-10-16 12:23:00,
2013-10-16 05:28:00,50.4,47.5,30.12,South,180,0.0,1.3,90,0.00,,,0.00,WUHU216HW,2013-10-16 12:28:00,
2013-10-16 05:33:00,50.4,47.5,30.12,SSE,158,0.0,1.3,90,0.00,,,0.00,WUHU216HW,2013-10-16 12:33:00,
2013-10-16 05:39:00,50.4,47.5,30.12,West,270,0.4,2.0,90,0.00,,,0.00,WUHU216HW,2013-10-16 12:39:00,
2013-10-16 05:44:00,50.4,47.5,30.12,NNW,338,0.9,2.0,90,0.00,,,0.00,WUHU216HW,2013-10-16 12:44:00,
2013-10-16 05:49:00,50.4,47.5,30.12,SSW,203,0.4,1.8,90,0.00,,,0.00,WUHU216HW,2013-10-16 12:49:00,
2013-10-16 05:54:00,50.2,47.3,30.12,SSE,158,0.4,2.2,90,0.00,,,0.00,WUHU216HW,2013-10-16 12:54:00,
2013-10-16 05:59:00,50.2,47.3,30.12,NE,45,0.2,2.5,90,0.00,,,0.00,WUHU216HW,2013-10-16 12:59:00,
2013-10-16 06:04:00,50.2,47.3,30.12,NW,315,0.4,2.5,90,0.00,,,0.00,WUHU216HW,2013-10-16 13:04:00,
2013-10-16 06:09:00,50.0,47.2,30.12,SE,135,1.1,1.8,90,0.00,,,0.00,WUHU216HW,2013-10-16 13:09:00,
2013-10-16 06:14:00,50.0,47.2,30.13,ENE,68,0.4,1.8,90,0.00,,,0.00,WUHU216HW,2013-10-16 13:14:00,
2013-10-16 06:19:00,50.0,47.2,30.13,East,90,0.7,1.8,90,0.00,,,0.00,WUHU216HW,2013-10-16 13:19:00,
2013-10-16 06:24:00,50.0,47.2,30.13,NNW,338,1.1,3.1,90,0.00,,,0.00,WUHU216HW,2013-10-16 13:24:00,
2013-10-16 06:29:00,50.0,47.2,30.13,NNW,338,1.1,3.1,90,0.00,,,0.00,WUHU216HW,2013-10-16 13:29:00,
2013-10-16 06:34:00,49.9,47.0,30.13,ESE,113,0.7,3.1,90,0.00,,,0.00,WUHU216HW,2013-10-16 13:34:00,
2013-10-16 06:40:00,49.7,47.2,30.14,NE,45,2.0,2.0,91,0.00,,,0.00,WUHU216HW,2013-10-16 13:40:00,
2013-10-16 06:45:00,49.7,46.8,30.13,SE,135,1.1,2.0,90,0.00,,,0.00,WUHU216HW,2013-10-16 13:45:00,
2013-10-16 06:50:00,49.7,46.8,30.13,SSE,158,0.7,2.0,90,0.00,,,0.00,WUHU216HW,2013-10-16 13:50:00,
2013-10-16 06:55:00,49.7,47.2,30.13,NE,45,0.4,2.0,91,0.00,,,0.00,WUHU216HW,2013-10-16 13:55:00,
2013-10-16 07:01:00,49.7,47.2,30.13,NNE,23,0.7,2.5,91,0.00,,,0.00,WUHU216HW,2013-10-16 14:01:00,
2013-10-16 07:06:00,49.7,47.2,30.13,NW,315,1.8,2.5,91,0.00,,,0.00,WUHU216HW,2013-10-16 14:06:00,
2013-10-16 07:11:00,49.5,47.0,30.13,South,180,0.0,1.8,91,0.00,,,0.00,WUHU216HW,2013-10-16 14:11:00,
2013-10-16 07:16:00,49.5,47.0,30.13,ENE,68,0.4,2.5,91,0.00,,,0.00,WUHU216HW,2013-10-16 14:16:00,
2013-10-16 07:21:00,49.5,47.0,30.13,SSE,158,0.7,2.5,91,0.00,,,0.00,WUHU216HW,2013-10-16 14:21:00,
2013-10-16 07:26:00,49.5,47.0,30.13,East,90,0.0,2.5,91,0.00,,,0.00,WUHU216HW,2013-10-16 14:26:00,
2013-10-16 07:31:00,49.5,47.0,30.13,NNE,23,1.1,2.5,91,0.00,,,0.00,WUHU216HW,2013-10-16 14:31:00,
2013-10-16 07:36:00,49.3,46.8,30.14,NNE,23,0.4,2.5,91,0.00,,,0.00,WUHU216HW,2013-10-16 14:36:00,
2013-10-16 07:41:00,49.3,46.8,30.14,North,0,0.0,2.5,91,0.00,,,0.00,WUHU216HW,2013-10-16 14:41:00,
2013-10-16 07:46:00,49.3,46.8,30.14,East,90,0.0,1.8,91,0.00,,,0.00,WUHU216HW,2013-10-16 14:46:00,
2013-10-16 07:51:00,49.3,46.8,30.14,NW,315,0.9,1.8,91,0.00,,,0.00,WUHU216HW,2013-10-16 14:51:00,
2013-10-16 07:56:00,49.3,46.8,30.14,ENE,68,0.0,1.8,91,0.00,,,0.00,WUHU216HW,2013-10-16 14:56:00,
2013-10-16 08:01:00,49.3,46.8,30.14,North,0,0.0,1.6,91,0.00,,,0.00,WUHU216HW,2013-10-16 15:01:00,
2013-10-16 08:06:00,49.3,46.8,30.14,SSW,203,0.4,1.6,91,0.00,,,0.00,WUHU216HW,2013-10-16 15:06:00,
2013-10-16 08:11:00,49.3,46.8,30.14,NW,315,0.4,1.3,91,0.00,,,0.00,WUHU216HW,2013-10-16 15:11:00,
2013-10-16 08:17:00,49.3,46.8,30.15,NNW,338,0.0,1.3,91,0.00,,,0.00,WUHU216HW,2013-10-16 15:17:00,
2013-10-16 08:22:00,49.3,46.8,30.15,NW,315,0.2,0.7,91,0.00,,,0.00,WUHU216HW,2013-10-16 15:22:00,
2013-10-16 08:27:00,49.5,47.0,30.15,NNE,23,0.0,1.1,91,0.00,,,0.00,WUHU216HW,2013-10-16 15:27:00,
2013-10-16 08:32:00,49.5,47.0,30.15,ENE,68,0.0,1.1,91,0.00,,,0.00,WUHU216HW,2013-10-16 15:32:00,
2013-10-16 08:37:00,49.5,47.0,30.15,ENE,68,0.9,1.1,91,0.00,,,0.00,WUHU216HW,2013-10-16 15:37:00,
2013-10-16 08:42:00,49.7,47.2,30.14,WSW,248,1.1,1.1,91,0.00,,,0.00,WUHU216HW,2013-10-16 15:42:00,
2013-10-16 08:47:00,49.7,47.2,30.15,SE,135,1.1,1.1,91,0.00,,,0.00,WUHU216HW,2013-10-16 15:47:00,
2013-10-16 08:52:00,49.7,47.2,30.15,ENE,68,0.7,1.1,91,0.00,,,0.00,WUHU216HW,2013-10-16 15:52:00,
2013-10-16 08:57:00,49.5,47.0,30.15,WNW,293,1.1,1.8,91,0.00,,,0.00,WUHU216HW,2013-10-16 15:57:00,
2013-10-16 09:02:00,49.5,47.0,30.15,NNE,23,0.0,1.8,91,0.00,,,0.00,WUHU216HW,2013-10-16 16:02:00,
2013-10-16 09:07:00,49.5,47.0,30.15,North,0,0.0,1.1,91,0.00,,,0.00,WUHU216HW,2013-10-16 16:07:00,
2013-10-16 09:12:00,49.5,47.0,30.15,SSW,203,0.0,1.1,91,0.00,,,0.00,WUHU216HW,2013-10-16 16:12:00,
2013-10-16 09:17:00,49.7,47.2,30.15,North,0,0.0,1.3,91,0.00,,,0.00,WUHU216HW,2013-10-16 16:17:00,
2013-10-16 09:22:00,49.7,47.2,30.15,NNW,338,0.7,1.8,91,0.00,,,0.00,WUHU216HW,2013-10-16 16:22:00,
2013-10-16 09:27:00,49.7,47.2,30.15,SSW,203,0.4,1.8,91,0.00,,,0.00,WUHU216HW,2013-10-16 16:27:00,
2013-10-16 09:32:00,49.7,47.2,30.16,NW,315,1.1,3.4,91,0.00,,,0.00,WUHU216HW,2013-10-16 16:32:00,
2013-10-16 09:37:00,49.7,47.2,30.16,NNE,23,0.2,3.4,91,0.00,,,0.00,WUHU216HW,2013-10-16 16:37:00,
2013-10-16 09:42:00,49.9,47.3,30.16,WSW,248,0.2,2.2,91,0.00,,,0.00,WUHU216HW,2013-10-16 16:42:00,
2013-10-16 09:47:00,49.9,47.3,30.16,East,90,0.0,1.6,91,0.00,,,0.00,WUHU216HW,2013-10-16 16:47:00,
2013-10-16 09:52:00,49.9,47.3,30.16,North,0,3.1,3.1,91,0.00,,,0.00,WUHU216HW,2013-10-16 16:52:00,
2013-10-16 09:57:00,49.9,47.3,30.16,NNE,23,0.7,3.1,91,0.00,,,0.00,WUHU216HW,2013-10-16 16:57:00,
2013-10-16 10:02:00,50.0,47.4,30.16,NNE,23,1.1,3.1,91,0.00,,,0.00,WUHU216HW,2013-10-16 17:02:00,
2013-10-16 10:07:00,50.0,47.4,30.16,WNW,293,0.7,2.7,91,0.00,,,0.00,WUHU216HW,2013-10-16 17:07:00,
2013-10-16 10:12:00,50.0,47.4,30.16,South,180,0.4,2.7,91,0.00,,,0.00,WUHU216HW,2013-10-16 17:12:00,
2013-10-16 10:17:00,50.0,47.4,30.16,South,180,1.1,2.5,91,0.00,,,0.00,WUHU216HW,2013-10-16 17:17:00,
2013-10-16 10:22:00,50.0,47.4,30.16,WSW,248,1.8,2.2,91,0.00,,,0.00,WUHU216HW,2013-10-16 17:22:00,
2013-10-16 10:27:00,50.0,47.4,30.16,SE,135,0.2,2.2,91,0.00,,,0.00,WUHU216HW,2013-10-16 17:27:00,
2013-10-16 10:32:00,50.0,47.4,30.16,SE,135,1.1,2.2,91,0.00,,,0.00,WUHU216HW,2013-10-16 17:32:00,
2013-10-16 10:37:00,50.0,47.4,30.16,WSW,248,0.9,2.5,91,0.00,,,0.00,WUHU216HW,2013-10-16 17:37:00,
2013-10-16 10:42:00,50.0,47.4,30.16,SE,135,1.6,3.8,91,0.00,,,0.00,WUHU216HW,2013-10-16 17:42:00,
2013-10-16 10:47:00,50.2,47.6,30.16,SSE,158,1.3,3.8,91,0.00,,,0.00,WUHU216HW,2013-10-16 17:47:00,
2013-10-16 10:52:00,50.2,47.6,30.16,SW,225,0.4,2.0,91,0.00,,,0.00,WUHU216HW,2013-10-16 17:52:00,
2013-10-16 10:57:00,50.2,47.6,30.15,NNE,23,1.1,2.5,91,0.00,,,0.00,WUHU216HW,2013-10-16 17:57:00,
2013-10-16 11:02:00,50.4,47.8,30.16,SSW,203,0.7,3.4,91,0.00,,,0.00,WUHU216HW,2013-10-16 18:02:00,
2013-10-16 11:07:00,50.4,47.8,30.16,SSW,203,1.1,3.4,91,0.00,,,0.00,WUHU216HW,2013-10-16 18:07:00,
2013-10-16 11:12:00,50.6,47.7,30.16,SW,225,1.3,2.9,90,0.00,,,0.00,WUHU216HW,2013-10-16 18:12:00,
2013-10-16 11:17:00,50.6,47.7,30.16,ESE,113,1.3,3.4,90,0.00,,,0.00,WUHU216HW,2013-10-16 18:17:00,
2013-10-16 11:22:00,50.8,47.9,30.16,SSW,203,1.8,3.4,90,0.00,,,0.00,WUHU216HW,2013-10-16 18:22:00,
2013-10-16 11:27:00,50.8,47.9,30.15,SSE,158,1.6,2.5,90,0.00,,,0.00,WUHU216HW,2013-10-16 18:27:00,
2013-10-16 11:32:00,50.9,47.8,30.15,NW,315,1.6,2.5,89,0.00,,,0.00,WUHU216HW,2013-10-16 18:32:00,
2013-10-16 11:37:00,50.9,47.8,30.16,SW,225,0.0,2.7,89,0.00,,,0.00,WUHU216HW,2013-10-16 18:37:00,
2013-10-16 11:42:00,51.1,48.0,30.15,NW,315,0.2,2.7,89,0.00,,,0.00,WUHU216HW,2013-10-16 18:42:00,
2013-10-16 11:47:00,51.3,48.4,30.16,SW,225,2.2,2.7,90,0.00,,,0.00,WUHU216HW,2013-10-16 18:47:00,
2013-10-16 11:52:00,51.3,48.2,30.16,SSW,203,0.9,2.5,89,0.00,,,0.00,WUHU216HW,2013-10-16 18:52:00,
2013-10-16 11:57:00,51.5,48.3,30.16,South,180,1.6,2.5,89,0.00,,,0.00,WUHU216HW,2013-10-16 18:57:00,
2013-10-16 12:02:00,51.7,48.5,30.15,North,0,0.4,2.7,89,0.00,,,0.00,WUHU216HW,2013-10-16 19:02:00,
2013-10-16 12:07:00,52.0,48.9,30.15,South,180,2.2,4.7,89,0.00,,,0.00,WUHU216HW,2013-10-16 19:07:00,
2013-10-16 12:12:00,52.2,48.7,30.15,North,0,1.8,6.3,88,0.00,,,0.00,WUHU216HW,2013-10-16 19:12:00,
2013-10-16 12:17:00,52.6,48.8,30.15,SW,225,1.3,6.3,87,0.00,,,0.00,WUHU216HW,2013-10-16 19:17:00,
2013-10-16 12:22:00,52.9,49.2,30.15,WNW,293,1.8,4.0,87,0.00,,,0.00,WUHU216HW,2013-10-16 19:22:00,
2013-10-16 12:27:00,53.5,49.3,30.15,East,90,4.5,5.1,86,0.00,,,0.00,WUHU216HW,2013-10-16 19:27:00,
2013-10-16 12:32:00,53.6,49.2,30.15,NNW,338,2.2,5.1,85,0.00,,,0.00,WUHU216HW,2013-10-16 19:32:00,
2013-10-16 12:37:00,53.6,49.0,30.15,SSW,203,1.6,6.3,84,0.00,,,0.00,WUHU216HW,2013-10-16 19:37:00,
2013-10-16 12:42:00,54.0,49.6,30.15,NW,315,3.6,6.3,85,0.00,,,0.00,WUHU216HW,2013-10-16 19:42:00,
2013-10-16 12:47:00,54.4,49.6,30.15,SSW,203,1.8,4.5,84,0.00,,,0.00,WUHU216HW,2013-10-16 19:47:00,
2013-10-16 12:52:00,54.4,49.0,30.15,East,90,2.5,4.0,82,0.00,,,0.00,WUHU216HW,2013-10-16 19:52:00,
2013-10-16 12:57:00,54.4,49.3,30.15,WSW,248,1.6,5.4,83,0.00,,,0.00,WUHU216HW,2013-10-16 19:57:00,
2013-10-16 13:02:00,54.5,49.1,30.15,NNE,23,3.4,5.4,82,0.00,,,0.00,WUHU216HW,2013-10-16 20:02:00,
2013-10-16 13:07:00,54.5,49.4,30.14,SW,225,2.5,4.3,83,0.00,,,0.00,WUHU216HW,2013-10-16 20:07:00,
2013-10-16 13:12:00,54.7,49.6,30.14,WNW,293,1.6,4.0,83,0.00,,,0.00,WUHU216HW,2013-10-16 20:12:00,
2013-10-16 13:17:00,55.1,49.7,30.14,WNW,293,1.8,5.4,82,0.00,,,0.00,WUHU216HW,2013-10-16 20:17:00,
2013-10-16 13:22:00,55.1,49.7,30.14,NW,315,1.1,5.4,82,0.00,,,0.00,WUHU216HW,2013-10-16 20:22:00,
2013-10-16 13:27:00,55.1,49.7,30.14,North,0,2.2,5.4,82,0.00,,,0.00,WUHU216HW,2013-10-16 20:27:00,
2013-10-16 13:32:00,54.9,49.1,30.15,NNE,23,2.7,5.4,81,0.00,,,0.00,WUHU216HW,2013-10-16 20:32:00,
2013-10-16 13:37:00,54.9,49.5,30.14,NNW,338,2.0,4.7,82,0.00,,,0.00,WUHU216HW,2013-10-16 20:37:00,
2013-10-16 13:42:00,55.1,49.7,30.14,South,180,1.6,4.7,82,0.00,,,0.00,WUHU216HW,2013-10-16 20:42:00,
2013-10-16 13:47:00,55.3,49.5,30.14,NW,315,9.8,9.8,81,0.00,,,0.00,WUHU216HW,2013-10-16 20:47:00,
2013-10-16 13:52:00,55.1,49.3,30.14,NW,315,2.0,9.8,81,0.00,,,0.00,WUHU216HW,2013-10-16 20:52:00,
2013-10-16 13:57:00,55.1,49.3,30.14,South,180,3.6,9.8,81,0.00,,,0.00,WUHU216HW,2013-10-16 20:57:00,
2013-10-16 14:02:00,55.3,49.5,30.14,NE,45,1.6,4.0,81,0.00,,,0.00,WUHU216HW,2013-10-16 21:02:00,
2013-10-16 14:07:00,55.3,49.5,30.13,SE,135,2.2,3.6,81,0.00,,,0.00,WUHU216HW,2013-10-16 21:07:00,
2013-10-16 14:12:00,55.3,49.5,30.14,SSE,158,2.2,4.0,81,0.00,,,0.00,WUHU216HW,2013-10-16 21:12:00,
2013-10-16 14:17:00,55.4,49.7,30.14,SW,225,2.2,4.0,81,0.00,,,0.00,WUHU216HW,2013-10-16 21:17:00,
2013-10-16 14:22:00,55.8,50.1,30.14,SW,225,1.3,4.0,81,0.00,,,0.00,WUHU216HW,2013-10-16 21:22:00,
2013-10-16 14:27:00,55.8,50.1,30.14,WNW,293,1.6,5.8,81,0.00,,,0.00,WUHU216HW,2013-10-16 21:27:00,
2013-10-16 14:32:00,55.8,50.1,30.14,East,90,2.2,5.8,81,0.00,,,0.00,WUHU216HW,2013-10-16 21:32:00,
2013-10-16 14:37:00,55.8,50.1,30.14,WNW,293,1.8,4.0,81,0.00,,,0.00,WUHU216HW,2013-10-16 21:37:00,
2013-10-16 14:42:00,56.0,50.2,30.14,NNW,338,1.6,4.0,81,0.00,,,0.00,WUHU216HW,2013-10-16 21:42:00,
2013-10-16 14:49:00,56.3,50.2,30.14,NNW,338,0.9,4.3,80,0.00,,,0.00,WUHU216HW,2013-10-16 21:49:00,
2013-10-16 14:54:00,56.3,49.9,30.14,ENE,68,0.9,4.3,79,0.00,,,0.00,WUHU216HW,2013-10-16 21:54:00,
2013-10-16 14:59:00,56.2,50.0,30.14,WSW,248,2.5,4.5,80,0.00,,,0.00,WUHU216HW,2013-10-16 21:59:00,
2013-10-16 15:04:00,56.0,49.9,30.14,ESE,113,1.6,4.5,80,0.00,,,0.00,WUHU216HW,2013-10-16 22:04:00,
2013-10-16 15:09:00,55.8,49.3,30.14,NW,315,1.8,2.9,79,0.00,,,0.00,WUHU216HW,2013-10-16 22:09:00,
2013-10-16 15:14:00,55.8,49.7,30.13,WNW,293,1.8,3.4,80,0.00,,,0.00,WUHU216HW,2013-10-16 22:14:00,
2013-10-16 15:20:00,55.6,49.1,30.13,West,270,1.8,3.4,79,0.00,,,0.00,WUHU216HW,2013-10-16 22:20:00,
2013-10-16 15:25:00,56.2,50.0,30.13,NNW,338,2.5,4.0,80,0.00,,,0.00,WUHU216HW,2013-10-16 22:25:00,
2013-10-16 15:30:00,56.3,49.9,30.13,East,90,2.2,4.0,79,0.00,,,0.00,WUHU216HW,2013-10-16 22:30:00,
2013-10-16 15:35:00,56.5,49.7,30.13,WNW,293,4.5,4.5,78,0.00,,,0.00,WUHU216HW,2013-10-16 22:35:00,
2013-10-16 15:42:00,56.2,49.3,30.13,SSE,158,2.7,4.5,78,0.00,,,0.00,WUHU216HW,2013-10-16 22:42:00,
2013-10-16 15:47:00,56.2,49.3,30.12,NNW,338,1.1,5.1,78,0.00,,,0.00,WUHU216HW,2013-10-16 22:47:00,
2013-10-16 15:52:00,56.2,49.3,30.12,SSW,203,0.9,5.1,78,0.00,,,0.00,WUHU216HW,2013-10-16 22:52:00,
2013-10-16 15:57:00,56.3,49.9,30.13,SSE,158,0.7,3.6,79,0.00,,,0.00,WUHU216HW,2013-10-16 22:57:00,
2013-10-16 16:02:00,56.2,49.3,30.13,North,0,1.8,3.6,78,0.00,,,0.00,WUHU216HW,2013-10-16 23:02:00,
2013-10-16 16:07:00,56.3,49.5,30.13,NNW,338,0.9,2.5,78,0.00,,,0.00,WUHU216HW,2013-10-16 23:07:00,
2013-10-16 16:12:00,56.2,49.7,30.13,SSE,158,1.8,3.6,79,0.00,,,0.00,WUHU216HW,2013-10-16 23:12:00,
2013-10-16 16:17:00,56.2,49.7,30.12,West,270,4.0,4.0,79,0.00,,,0.00,WUHU216HW,2013-10-16 23:17:00,
2013-10-16 16:22:00,55.8,49.3,30.12,North,0,0.7,4.0,79,0.00,,,0.00,WUHU216HW,2013-10-16 23:22:00,
2013-10-16 16:27:00,55.8,49.7,30.12,North,0,0.2,4.0,80,0.00,,,0.00,WUHU216HW,2013-10-16 23:27:00,
2013-10-16 16:32:00,55.8,50.1,30.12,ENE,68,1.1,1.8,81,0.00,,,0.00,WUHU216HW,2013-10-16 23:32:00,
2013-10-16 16:37:00,55.8,50.1,30.12,SSW,203,1.8,1.8,81,0.00,,,0.00,WUHU216HW,2013-10-16 23:37:00,
2013-10-16 16:42:00,55.6,49.5,30.12,North,0,1.1,2.5,80,0.00,,,0.00,WUHU216HW,2013-10-16 23:42:00,
2013-10-16 16:47:00,55.4,49.3,30.12,NW,315,0.7,2.7,80,0.00,,,0.00,WUHU216HW,2013-10-16 23:47:00,
2013-10-16 16:52:00,55.1,49.0,30.12,SSW,203,1.3,2.7,80,0.00,,,0.00,WUHU216HW,2013-10-16 23:52:00,
2013-10-16 16:57:00,55.1,49.3,30.12,NW,315,1.3,2.7,81,0.00,,,0.00,WUHU216HW,2013-10-16 23:57:00,
2013-10-16 17:02:00,55.1,49.3,30.12,SW,225,0.2,1.3,81,0.00,,,0.00,WUHU216HW,2013-10-17 00:02:00,
2013-10-16 17:07:00,54.9,49.1,30.12,North,0,1.1,2.0,81,0.00,,,0.00,WUHU216HW,2013-10-17 00:07:00,
2013-10-16 17:12:00,54.9,49.1,30.12,SSE,158,0.4,2.2,81,0.00,,,0.00,WUHU216HW,2013-10-17 00:12:00,
2013-10-16 17:17:00,54.9,49.1,30.12,SSE,158,0.4,2.2,81,0.00,,,0.00,WUHU216HW,2013-10-17 00:17:00,
2013-10-16 17:22:00,54.7,49.3,30.12,WSW,248,0.4,1.3,82,0.00,,,0.00,WUHU216HW,2013-10-17 00:22:00,
2013-10-16 17:27:00,54.5,49.1,30.12,SSE,158,0.0,1.3,82,0.00,,,0.00,WUHU216HW,2013-10-17 00:27:00,
2013-10-16 17:32:00,54.4,49.0,30.12,NNW,338,0.2,1.3,82,0.00,,,0.00,WUHU216HW,2013-10-17 00:32:00,
2013-10-16 17:37:00,54.0,48.6,30.11,NNW,338,1.1,2.5,82,0.00,,,0.00,WUHU216HW,2013-10-17 00:37:00,
2013-10-16 17:42:00,54.0,48.6,30.11,North,0,0.0,2.5,82,0.00,,,0.00,WUHU216HW,2013-10-17 00:42:00,
2013-10-16 17:47:00,53.8,48.8,30.12,WSW,248,0.0,2.5,83,0.00,,,0.00,WUHU216HW,2013-10-17 00:47:00,
2013-10-16 17:52:00,53.6,48.6,30.12,SSW,203,0.0,1.3,83,0.00,,,0.00,WUHU216HW,2013-10-17 00:52:00,
2013-10-16 17:57:00,53.6,48.6,30.12,West,270,0.4,1.6,83,0.00,,,0.00,WUHU216HW,2013-10-17 00:57:00,
2013-10-16 18:02:00,53.6,48.6,30.12,WSW,248,0.0,1.8,83,0.00,,,0.00,WUHU216HW,2013-10-17 01:02:00,
2013-10-16 18:07:00,53.5,48.4,30.12,SW,225,0.0,1.8,83,0.00,,,0.00,WUHU216HW,2013-10-17 01:07:00,
2013-10-16 18:12:00,53.3,48.2,30.12,NNW,338,0.0,0.9,83,0.00,,,0.00,WUHU216HW,2013-10-17 01:12:00,
2013-10-16 18:17:00,53.1,48.1,30.12,WNW,293,0.2,1.1,83,0.00,,,0.00,WUHU216HW,2013-10-17 01:17:00,
2013-10-16 18:22:00,52.9,48.3,30.12,NW,315,0.4,1.1,84,0.00,,,0.00,WUHU216HW,2013-10-17 01:22:00,
2013-10-16 18:27:00,52.6,47.9,30.12,NNW,338,0.0,2.2,84,0.00,,,0.00,WUHU216HW,2013-10-17 01:27:00,
2013-10-16 18:32:00,52.4,48.0,30.12,NNW,338,0.7,2.2,85,0.00,,,0.00,WUHU216HW,2013-10-17 01:32:00,
2013-10-16 18:37:00,52.0,47.6,30.12,North,0,0.9,1.1,85,0.00,,,0.00,WUHU216HW,2013-10-17 01:37:00,
2013-10-16 18:42:00,51.8,47.7,30.12,NNW,338,0.4,1.8,86,0.00,,,0.00,WUHU216HW,2013-10-17 01:42:00,
2013-10-16 18:47:00,51.5,47.3,30.12,North,0,0.9,1.8,86,0.00,,,0.00,WUHU216HW,2013-10-17 01:47:00,
2013-10-16 18:52:00,51.5,47.7,30.12,North,0,0.9,2.0,87,0.00,,,0.00,WUHU216HW,2013-10-17 01:52:00,
2013-10-16 18:57:00,51.3,47.8,30.12,NNW,338,0.7,2.0,88,0.00,,,0.00,WUHU216HW,2013-10-17 01:57:00,
2013-10-16 19:02:00,51.5,47.7,30.12,WSW,248,0.4,2.0,87,0.00,,,0.00,WUHU216HW,2013-10-17 02:02:00,
2013-10-16 19:07:00,51.5,47.7,30.12,NNW,338,0.2,1.8,87,0.00,,,0.00,WUHU216HW,2013-10-17 02:07:00,
2013-10-16 19:12:00,51.3,47.5,30.12,NNW,338,0.0,1.1,87,0.00,,,0.00,WUHU216HW,2013-10-17 02:12:00,
2013-10-16 19:17:00,51.1,47.4,30.13,West,270,0.7,0.7,87,0.00,,,0.00,WUHU216HW,2013-10-17 02:17:00,
2013-10-16 19:22:00,50.9,47.4,30.13,West,270,0.0,0.7,88,0.00,,,0.00,WUHU216HW,2013-10-17 02:22:00,
2013-10-16 19:27:00,50.8,47.3,30.13,NNW,338,0.0,0.9,88,0.00,,,0.00,WUHU216HW,2013-10-17 02:27:00,
2013-10-16 19:32:00,50.6,47.1,30.13,NNW,338,0.7,1.1,88,0.00,,,0.00,WUHU216HW,2013-10-17 02:32:00,
2013-10-16 19:39:00,50.2,46.7,30.13,NNW,338,0.7,1.1,88,0.00,,,0.00,WUHU216HW,2013-10-17 02:39:00,
2013-10-16 19:44:00,50.0,46.5,30.13,NNW,338,0.0,1.1,88,0.00,,,0.00,WUHU216HW,2013-10-17 02:44:00,
2013-10-16 19:49:00,50.0,46.5,30.13,NNW,338,0.0,0.7,88,0.00,,,0.00,WUHU216HW,2013-10-17 02:49:00,
2013-10-16 19:54:00,50.0,46.9,30.13,NNW,338,0.0,2.2,89,0.00,,,0.00,WUHU216HW,2013-10-17 02:54:00,
2013-10-16 19:59:00,50.0,46.9,30.13,NNW,338,1.1,2.2,89,0.00,,,0.00,WUHU216HW,2013-10-17 02:59:00,
2013-10-16 20:04:00,50.0,46.9,30.13,SSW,203,0.7,1.1,89,0.00,,,0.00,WUHU216HW,2013-10-17 03:04:00,
2013-10-16 20:09:00,50.0,46.9,30.13,WNW,293,0.0,1.1,89,0.00,,,0.00,WUHU216HW,2013-10-17 03:09:00,
2013-10-16 20:14:00,49.9,46.7,30.13,NNW,338,1.1,1.1,89,0.00,,,0.00,WUHU216HW,2013-10-17 03:14:00,
2013-10-16 20:19:00,49.9,46.7,30.14,NNW,338,0.0,1.1,89,0.00,,,0.00,WUHU216HW,2013-10-17 03:19:00,
2013-10-16 20:24:00,49.9,46.7,30.14,NNW,338,0.9,0.9,89,0.00,,,0.00,WUHU216HW,2013-10-17 03:24:00,
2013-10-16 20:29:00,49.9,46.7,30.13,NNW,338,0.0,0.9,89,0.00,,,0.00,WUHU216HW,2013-10-17 03:29:00,
2013-10-16 20:34:00,49.7,46.5,30.13,NNW,338,0.0,0.9,89,0.00,,,0.00,WUHU216HW,2013-10-17 03:34:00,
2013-10-16 20:39:00,49.7,46.5,30.13,NNW,338,0.0,0.0,89,0.00,,,0.00,WUHU216HW,2013-10-17 03:39:00,
2013-10-16 20:44:00,49.9,46.7,30.14,NNW,338,0.0,0.0,89,0.00,,,0.00,WUHU216HW,2013-10-17 03:44:00,
2013-10-16 20:49:00,49.7,46.5,30.14,NNW,338,0.0,0.0,89,0.00,,,0.00,WUHU216HW,2013-10-17 03:49:00,
2013-10-16 20:54:00,49.5,46.4,30.14,NNW,338,0.0,0.0,89,0.00,,,0.00,WUHU216HW,2013-10-17 03:54:00,
2013-10-16 20:59:00,49.3,46.5,30.14,NNW,338,0.0,0.0,90,0.00,,,0.00,WUHU216HW,2013-10-17 03:59:00,
2013-10-16 21:01:00,49.3,46.5,30.14,NNW,338,0.0,0.0,90,0.00,,,0.00,WUHU216HW,2013-10-17 04:01:00,
2013-10-16 21:02:00,49.3,46.5,30.14,NNW,338,0.0,0.0,90,0.00,,,0.00,WUHU216HW,2013-10-17 04:02:00,
2013-10-16 21:07:00,49.3,46.5,30.14,NNW,338,0.0,0.0,90,0.00,,,0.00,WUHU216HW,2013-10-17 04:07:00,
2013-10-16 21:12:00,49.3,46.5,30.14,North,0,1.1,1.3,90,0.00,,,0.00,WUHU216HW,2013-10-17 04:12:00,
2013-10-16 21:17:00,49.3,46.5,30.15,NE,45,0.4,1.3,90,0.00,,,0.00,WUHU216HW,2013-10-17 04:17:00,
2013-10-16 21:22:00,49.1,46.4,30.15,NE,45,0.4,1.3,90,0.00,,,0.00,WUHU216HW,2013-10-17 04:22:00,
2013-10-16 21:27:00,49.3,46.8,30.15,NE,45,1.1,1.3,91,0.00,,,0.00,WUHU216HW,2013-10-17 04:27:00,
2013-10-16 21:32:00,49.3,46.8,30.15,ENE,68,1.1,1.8,91,0.00,,,0.00,WUHU216HW,2013-10-17 04:32:00,
2013-10-16 21:37:00,49.3,46.8,30.15,NNE,23,1.1,1.8,91,0.00,,,0.00,WUHU216HW,2013-10-17 04:37:00,
2013-10-16 21:42:00,49.1,46.6,30.15,ENE,68,0.4,1.8,91,0.00,,,0.00,WUHU216HW,2013-10-17 04:42:00,
2013-10-16 21:47:00,49.1,46.6,30.15,ENE,68,0.2,1.1,91,0.00,,,0.00,WUHU216HW,2013-10-17 04:47:00,
2013-10-16 21:52:00,49.3,46.8,30.15,ENE,68,0.0,1.1,91,0.00,,,0.00,WUHU216HW,2013-10-17 04:52:00,
2013-10-16 21:57:00,49.5,47.0,30.15,ENE,68,0.0,0.4,91,0.00,,,0.00,WUHU216HW,2013-10-17 04:57:00,
2013-10-16 22:02:00,49.5,46.7,30.15,ENE,68,0.0,0.0,90,0.00,,,0.00,WUHU216HW,2013-10-17 05:02:00,
2013-10-16 22:07:00,49.3,46.5,30.15,ENE,68,0.0,0.0,90,0.00,,,0.00,WUHU216HW,2013-10-17 05:07:00,
2013-10-16 22:12:00,49.1,46.4,30.15,ENE,68,0.0,0.0,90,0.00,,,0.00,WUHU216HW,2013-10-17 05:12:00,
2013-10-16 22:17:00,49.1,46.4,30.15,ENE,68,0.0,0.0,90,0.00,,,0.00,WUHU216HW,2013-10-17 05:17:00,
2013-10-16 22:22:00,48.8,46.0,30.15,ENE,68,0.0,0.0,90,0.00,,,0.00,WUHU216HW,2013-10-17 05:22:00,
2013-10-16 22:27:00,48.8,46.0,30.15,ENE,68,0.0,0.0,90,0.00,,,0.00,WUHU216HW,2013-10-17 05:27:00,
2013-10-16 22:32:00,48.6,46.2,30.15,NE,45,0.4,0.9,91,0.00,,,0.00,WUHU216HW,2013-10-17 05:32:00,
2013-10-16 22:37:00,48.6,46.2,30.15,NE,45,0.4,1.1,91,0.00,,,0.00,WUHU216HW,2013-10-17 05:37:00,
2013-10-16 22:42:00,48.6,46.2,30.15,NE,45,0.0,1.1,91,0.00,,,0.00,WUHU216HW,2013-10-17 05:42:00,
2013-10-16 22:47:00,48.6,46.2,30.16,NE,45,0.0,1.1,91,0.00,,,0.00,WUHU216HW,2013-10-17 05:47:00,
2013-10-16 22:52:00,48.6,46.2,30.15,NE,45,0.9,0.9,91,0.00,,,0.00,WUHU216HW,2013-10-17 05:52:00,
2013-10-16 22:57:00,48.6,46.2,30.15,NE,45,0.0,0.9,91,0.00,,,0.00,WUHU216HW,2013-10-17 05:57:00,
2013-10-16 23:02:00,48.6,46.2,30.16,NE,45,0.7,1.1,91,0.00,,,0.00,WUHU216HW,2013-10-17 06:02:00,
2013-10-16 23:07:00,48.6,46.2,30.16,NE,45,0.0,1.1,91,0.00,,,0.00,WUHU216HW,2013-10-17 06:07:00,
2013-10-16 23:12:00,48.6,46.2,30.16,NE,45,0.7,1.1,91,0.00,,,0.00,WUHU216HW,2013-10-17 06:12:00,
2013-10-16 23:17:00,48.6,46.2,30.16,NE,45,1.1,1.3,91,0.00,,,0.00,WUHU216HW,2013-10-17 06:17:00,
2013-10-16 23:22:00,48.6,46.2,30.16,ENE,68,0.0,1.3,91,0.00,,,0.00,WUHU216HW,2013-10-17 06:22:00,
2013-10-16 23:27:00,48.6,46.2,30.16,ENE,68,0.0,1.3,91,0.00,,,0.00,WUHU216HW,2013-10-17 06:27:00,
2013-10-16 23:32:00,48.6,46.2,30.16,ENE,68,1.1,1.1,91,0.00,,,0.00,WUHU216HW,2013-10-17 06:32:00,
2013-10-16 23:37:00,48.6,46.2,30.16,ENE,68,1.1,1.8,91,0.00,,,0.00,WUHU216HW,2013-10-17 06:37:00,
2013-10-16 23:42:00,48.6,46.2,30.16,ENE,68,0.9,1.8,91,0.00,,,0.00,WUHU216HW,2013-10-17 06:42:00,
2013-10-16 23:47:00,48.6,46.2,30.16,East,90,0.4,1.8,91,0.00,,,0.00,WUHU216HW,2013-10-17 06:47:00,
2013-10-16 23:52:00,48.6,46.2,30.16,ESE,113,1.1,1.6,91,0.00,,,0.00,WUHU216HW,2013-10-17 06:52:00,
2013-10-16 23:57:00,48.6,46.2,30.16,ESE,113,1.1,1.1,91,0.00,,,0.00,WUHU216HW,2013-10-17 06:57:00,